When you browse on this site, cookies collect data to enhance your experience and personalize the content and advertising you see.
Visit our Privacy Policy to learn more. By continuing to use the site, you agree to this use of cookies and data.
  • In Austria
  • List of Countries
  • For 7 days
  • Water Temperature
  • Weather Map
  • News
  • Weather Widgets
  • user-avatar
    Login

    Hourly Weather Asadabad

    Today, 17 February, Monday

    Time Temperature Precipitation Wind Pressure Humidity
    00:00 +6°C° 0 mm 4 mps 660 mmHg 29%
    01:00 +6°C° 0 mm 4 mps 660 mmHg 28%
    02:00 +6°C° 0 mm 4 mps 660 mmHg 27%
    03:00 +5°C° 0 mm 4 mps 660 mmHg 26%
    04:00 +5°C° 0 mm 4 mps 660 mmHg 25%
    05:00 +5°C° 0 mm 4 mps 659 mmHg 25%
    06:00 +5°C° 0 mm 4 mps 660 mmHg 25%
    07:00 +5°C° 0 mm 4 mps 661 mmHg 25%
    08:00 +6°C° 0 mm 4 mps 661 mmHg 26%
    09:00 +9°C° 0 mm 3 mps 661 mmHg 23%
    10:00 +13°C° 0 mm 2 mps 662 mmHg 21%
    11:00 +15°C° 0 mm 1 mps 662 mmHg 18%
    12:00 +16°C° 0 mm 1 mps 662 mmHg 17%
    13:00 +18°C° 0 mm 1 mps 662 mmHg 17%
    14:00 +19°C° 0 mm 1 mps 661 mmHg 16%
    15:00 +18°C° 0 mm 1 mps 661 mmHg 19%
    16:00 +18°C° 0 mm 1 mps 661 mmHg 22%
    17:00 +18°C° 0 mm 1 mps 660 mmHg 24%
    18:00 +15°C° 0 mm 2 mps 660 mmHg 27%
    19:00 +13°C° 0 mm 2 mps 660 mmHg 30%
    20:00 +10°C° 0 mm 2 mps 660 mmHg 32%
    21:00 +10°C° 0 mm 3 mps 660 mmHg 32%
    22:00 +9°C° 0 mm 3 mps 660 mmHg 32%
    23:00 +9°C° 0 mm 3 mps 659 mmHg 32%

    Tomorrow, 18 February, Tuesday

    Time Temperature Precipitation Wind Pressure Humidity
    00:00 +9°C° 0 mm 3 mps 659 mmHg 31%
    01:00 +8°C° 0 mm 3 mps 659 mmHg 30%
    02:00 +8°C° 0 mm 3 mps 658 mmHg 29%
    03:00 +8°C° 0 mm 3 mps 658 mmHg 29%
    04:00 +7°C° 0 mm 3 mps 657 mmHg 29%
    05:00 +7°C° 0 mm 3 mps 657 mmHg 29%
    06:00 +8°C° 0 mm 3 mps 657 mmHg 30%
    07:00 +8°C° 0 mm 3 mps 657 mmHg 30%
    08:00 +8°C° 0 mm 3 mps 657 mmHg 31%
    09:00 +12°C° 0 mm 2 mps 658 mmHg 27%
    10:00 +14°C° 0 mm 2 mps 658 mmHg 23%
    11:00 +16°C° 0 mm 1 mps 659 mmHg 19%
    12:00 +18°C° 0 mm 1 mps 658 mmHg 19%
    13:00 +18°C° 0 mm 1 mps 658 mmHg 18%
    14:00 +18°C° 0 mm 2 mps 658 mmHg 18%
    15:00 +18°C° 0 mm 2 mps 657 mmHg 21%
    16:00 +17°C° 0 mm 2 mps 657 mmHg 23%
    17:00 +17°C° 0 mm 2 mps 657 mmHg 25%
    18:00 +15°C° 0 mm 1 mps 656 mmHg 31%
    19:00 +13°C° 0 mm 1 mps 656 mmHg 36%
    20:00 +10°C° 0 mm 0 mps 656 mmHg 41%
    21:00 +10°C° 0 mm 1 mps 656 mmHg 40%
    22:00 +10°C° 0 mm 1 mps 656 mmHg 39%
    23:00 +10°C° 0 mm 1 mps 656 mmHg 38%

    Day after tomorrow, 19 February, Wednesday

    Time Temperature Precipitation Wind Pressure Humidity
    00:00 +10°C° 0 mm 1 mps 656 mmHg 38%
    01:00 +8°C° 0 mm 2 mps 656 mmHg 38%
    02:00 +8°C° 0 mm 2 mps 655 mmHg 38%
    03:00 +8°C° 0 mm 2 mps 655 mmHg 38%
    04:00 +8°C° 0 mm 2 mps 655 mmHg 38%
    05:00 +8°C° 0 mm 3 mps 655 mmHg 38%
    06:00 +8°C° 0 mm 3 mps 655 mmHg 39%
    07:00 +9°C° 0 mm 3 mps 655 mmHg 39%
    08:00 +9°C° 0 mm 3 mps 656 mmHg 40%
    09:00 +11°C° 0 mm 3 mps 656 mmHg 36%
    10:00 +12°C° 0 mm 3 mps 657 mmHg 32%
    11:00 +14°C° 0 mm 3 mps 657 mmHg 28%
    12:00 +16°C° 0 mm 3 mps 657 mmHg 28%
    13:00 +16°C° 0 mm 3 mps 657 mmHg 28%
    14:00 +16°C° 0 mm 3 mps 656 mmHg 28%
    15:00 +16°C° 0.1 mm 3 mps 656 mmHg 30%
    16:00 +16°C° 0.1 mm 3 mps 656 mmHg 32%
    17:00 +14°C° 0.1 mm 3 mps 656 mmHg 35%
    18:00 +13°C° 0.1 mm 3 mps 656 mmHg 41%
    19:00 +12°C° 0.1 mm 3 mps 657 mmHg 48%
    20:00 +12°C° 0.1 mm 2 mps 657 mmHg 55%
    21:00 +10°C° 0.8 mm 3 mps 657 mmHg 61%
    22:00 +9°C° 0.8 mm 3 mps 657 mmHg 67%
    23:00 +7°C° 0.8 mm 4 mps 657 mmHg 73%

    20 February, Thursday

    Time Temperature Precipitation Wind Pressure Humidity
    00:00 +7°C° 0.6 mm 4 mps 657 mmHg 76%
    01:00 +7°C° 0.6 mm 4 mps 657 mmHg 78%
    02:00 +6°C° 0.6 mm 4 mps 657 mmHg 81%
    03:00 +6°C° 0.4 mm 4 mps 657 mmHg 79%
    04:00 +6°C° 0.4 mm 4 mps 657 mmHg 77%
    05:00 +6°C° 0.4 mm 4 mps 657 mmHg 74%
    06:00 +7°C° 0.2 mm 4 mps 657 mmHg 73%
    07:00 +7°C° 0.2 mm 4 mps 658 mmHg 72%
    08:00 +7°C° 0.2 mm 4 mps 658 mmHg 70%
    09:00 +10°C° 0 mm 4 mps 659 mmHg 63%
    10:00 +11°C° 0 mm 4 mps 659 mmHg 55%
    11:00 +13°C° 0 mm 3 mps 659 mmHg 47%
    12:00 +14°C° 0 mm 3 mps 659 mmHg 45%
    13:00 +14°C° 0 mm 3 mps 659 mmHg 43%
    14:00 +16°C° 0 mm 3 mps 658 mmHg 41%
    15:00 +14°C° 0 mm 3 mps 658 mmHg 45%
    16:00 +14°C° 0 mm 2 mps 658 mmHg 49%
    17:00 +14°C° 0 mm 2 mps 658 mmHg 54%
    18:00 +13°C° 0 mm 2 mps 658 mmHg 57%
    19:00 +10°C° 0 mm 2 mps 658 mmHg 60%
    20:00 +9°C° 0 mm 2 mps 658 mmHg 63%
    21:00 +9°C° 0 mm 2 mps 658 mmHg 59%
    22:00 +9°C° 0 mm 2 mps 658 mmHg 54%
    23:00 +8°C° 0 mm 3 mps 658 mmHg 50%

    21 February, Friday

    Time Temperature Precipitation Wind Pressure Humidity
    00:00 +8°C° 0 mm 3 mps 658 mmHg 46%
    01:00 +8°C° 0 mm 3 mps 657 mmHg 42%
    02:00 +8°C° 0 mm 3 mps 657 mmHg 37%
    03:00 +8°C° 0 mm 3 mps 657 mmHg 37%
    04:00 +7°C° 0 mm 3 mps 657 mmHg 36%
    05:00 +6°C° 0 mm 4 mps 657 mmHg 35%
    06:00 +8°C° 0 mm 3 mps 657 mmHg 35%
    07:00 +8°C° 0 mm 3 mps 658 mmHg 36%
    08:00 +9°C° 0 mm 3 mps 658 mmHg 36%
    09:00 +11°C° 0 mm 3 mps 659 mmHg 31%
    10:00 +14°C° 0 mm 2 mps 660 mmHg 27%
    11:00 +16°C° 0 mm 1 mps 660 mmHg 23%
    18:00 +16°C° 0 mm 1 mps 659 mmHg 33%
    19:00 +14°C° 0 mm 1 mps 659 mmHg 39%
    20:00 +12°C° 0 mm 1 mps 659 mmHg 45%
    21:00 +12°C° 0 mm 2 mps 659 mmHg 44%
    22:00 +12°C° 0 mm 2 mps 660 mmHg 42%
    23:00 +12°C° 0 mm 2 mps 660 mmHg 41%

    22 February, Saturday

    Time Temperature Precipitation Wind Pressure Humidity
    00:00 +10°C° 0 mm 2 mps 659 mmHg 41%
    01:00 +10°C° 0 mm 2 mps 659 mmHg 40%
    02:00 +9°C° 0 mm 2 mps 659 mmHg 40%
    03:00 +9°C° 0 mm 3 mps 659 mmHg 39%
    04:00 +9°C° 0 mm 3 mps 659 mmHg 39%
    05:00 +9°C° 0 mm 3 mps 659 mmHg 38%
    06:00 +10°C° 0 mm 3 mps 659 mmHg 39%
    07:00 +10°C° 0 mm 3 mps 660 mmHg 39%
    08:00 +11°C° 0 mm 3 mps 660 mmHg 39%
    09:00 +13°C° 0 mm 2 mps 661 mmHg 35%
    10:00 +15°C° 0 mm 2 mps 661 mmHg 31%
    11:00 +16°C° 0 mm 1 mps 662 mmHg 28%
    12:00 +18°C° 0 mm 1 mps 661 mmHg 28%
    13:00 +18°C° 0 mm 1 mps 661 mmHg 29%
    14:00 +17°C° 0 mm 0 mps 661 mmHg 30%
    15:00 +19°C° 0 mm 1 mps 661 mmHg 31%
    16:00 +19°C° 0 mm 1 mps 660 mmHg 32%
    17:00 +19°C° 0 mm 1 mps 660 mmHg 32%
    18:00 +16°C° 0 mm 1 mps 660 mmHg 38%
    19:00 +14°C° 0 mm 1 mps 660 mmHg 43%
    20:00 +13°C° 0 mm 2 mps 660 mmHg 49%
    21:00 +12°C° 0 mm 2 mps 660 mmHg 48%
    22:00 +12°C° 0 mm 2 mps 660 mmHg 47%
    23:00 +11°C° 0 mm 3 mps 660 mmHg 46%
    Show more